Location: ????
(55.5675°N, 37.6272°E)
Time: 08:04:15
(UTC+00:00)

Cosmos 2151 - Pass Details

Date: 14 April 2026
Orbit: 558 x 574 km, 82.5° (Epoch: 9 May)

Event Time Altitude Azimuth Distance (km) Brightness Sun altitude
Rises 22:04:51 0° 349° (N) 2,801 7.6 -24.4°
Reaches altitude 10° 22:07:05 10° 353° (N) 1,898 6.5 -24.3°
Maximum altitude 22:11:14 64° 75° (ENE) 641 3.1 -24.2°
Enters shadow 22:11:15 64° 76° (ENE) 641 3.1 -24.2°
